Location: Borovka
(49.7741°N, 14.5280°E)
Time: 03:31:58
(UTC+00:00)

ESTCUBE 1 - Pass Details

Date: 18 March 2026
Orbit: 620 x 631 km, 97.7° (Epoch: 13 April)

Event Time Altitude Azimuth Distance (km) Brightness Sun altitude
Exits shadow 21:18:38 11° 277° (W) 1,948 ? -35.5°
Drops below altitude 10° 21:19:40 10° 290° (WNW) 2,012 ? -35.6°
Sets 21:23:41 0° 327° (NNW) 2,931 ? -35.9°
